www.pogodaiklimat.ru

Погода и климат >> Архив погоды >> Россия >> Крым >> Евпатория


ПОГОДА в Евпатории

АРХИВ ПОГОДЫ в Евпатории

Время (UTC), дата Ветер
(напр.,м/с)
 
Видим.   Явления Облачность Т
(С)
Тd
(С)
f
(%)
Тe
(С)
Тes
(С)
Комфортность P
(гПа)
Po
(гПа)
Тmin
(С)
Tmax
(С)
R
(мм)
R24
(мм)
S
(см)
15 15.09 СВ 3 20 км ясно +23.2 +7.7 37 +24 +25 комфорт 1023.9 1022.7
18 15.09 С 3 10 км ясно +19.0 +10.3 57 +20 +20 тепло 1023.9 1022.7 +23.3
21 15.09 СВ 2 10 км ясно +16.5 +9.2 62 +17 +17 тепло 1022.5 1021.3
00 16.09 СВ 2 10 км ясно +13.2 +8.9 75 +13 +13 по сезону 1022.5 1021.3
03 16.09 ЮВ 3 10 км ясно +12.7 +9.9 83 +11 +11 прохладно 1020.0 1018.8 +11.6
06 16.09 В 2 50 км ясно +15.3 +6.6 56 +15 +19 по сезону 1019.9 1018.7 +11.6
09 16.09 Ю 2 20 км 1/1 600 м
[Cu hum]
+21.9 +12.2 54 +24 +34 комфорт 1018.5 1017.3
12 16.09 ЮЗ 4 20 км 1/1 600 м
[Cu hum]
+23.8 +11.1 45 +25 +30 комфорт 1017.2 1016.0
15 16.09 З 4 20 км ясно +21.6 +12.4 56 +24 +24 комфорт 1015.9 1014.7
18 16.09 З 2 10 км ясно +19.3 +12.8 66 +21 +21 комфорт 1015.9 1014.7 +24.3
21 16.09 З 3 10 км ясно +18.8 +12.1 65 +20 +20 тепло 1015.9 1014.7
00 17.09 З 3 10 км ясно +18.9 +14.6 76 +20 +20 тепло 1014.5 1013.3
03 17.09 З 3 10 км 1/1 600 м
[Sc]
+19.4 +16.1 81 +21 +21 комфорт 1012.4 1011.2 +18.5
06 17.09 З 4 20 км 5/5 600 м
[Cu hum]
+21.9 +17.2 75 +26 +27 душно 1012.3 1011.1 +18.5
09 17.09 ЮЗ 4 20 км 8/4 600 м
[Cu hum Ci fib]
+24.3 +18.3 69 +29 +33 душно 1012.1 1010.9
12 17.09 ЮЗ 4 20 км 8/4 600 м
[St Ac As]
+24.4 +18.9 71 +29 +31 душно 1011.4 1010.2
15 17.09 ЮЗ 3 20 км 9/4 600 м
[Sc Ac As]
+22.4 +19.4 83 +28 +28 душно 1011.9 1010.7
18 17.09 СЗ 3 10 км 8/0
[Ac lent]
+22.1 +15.8 67 +26 +26 душно 1011.7 1010.5 +24.8
21 17.09 З 2 10 км 8/8 600 м
[Sc]
+19.7 +13.8 69 +22 +22 комфорт 1013.2 1012.0
00 18.09 ЮЗ 2 10 км 9/9 600 м
[Sc]
+20.9 +16.5 76 +25 +25 комфорт 1011.9 1010.7
03 18.09 ЮЗ 5 10 км 6/6 300 м
[Frnb]
+21.3 +19.1 87 +26 +26 душно 1009.3 1008.1 +19.0
06 18.09 ЮЗ 4 20 км 3/3 300 м
[St]
+22.5 +20.1 86 +29 +30 очень
душно
1009.2 1008.0 +19.0
09 18.09 СЗ 6 20 км 7 баллов +24.9 +19.0 70 +30 +31 душно 1010.4 1009.3
12 18.09 СЗ 6-10
{11}
20 км 9/5 600 м
[Sc Ac As]
+25.7 +18.9 66 +31 +31 очень
душно
1011.1 1010.0
15 18.09 С 5
{11}
20 км 8/6 600 м
[Sc Ac As]
+19.4 +7.7 47 +20 +20 тепло 1014.5 1013.3
18 18.09 СЗ 2 20 км {ливн. осадки} 10/4 600 м
[Cb calv Ac As]
+17.4 +8.0 54 +18 +18 тепло 1016.5 1015.3 +25.7 0.0
21 18.09 С 3 10 км 3/3 600 м
[Sc]
+15.4 +4.9 50 +15 +15 по сезону 1018.9 1017.7
00 19.09 С 2 10 км ясно +12.4 +3.6 55 +12 +12 по сезону 1021.2 1020.0
03 19.09 С 3 10 км ясно +10.9 +3.7 61 +9 +9 холодно 1021.5 1020.3 +10.5
06 19.09 СВ 2 50 км 8/8 600 м
[Sc]
+13.7 +7.7 67 +13 +14 прохладно 1023.9 1022.7 +10.2
09 19.09 ЮВ 1 50 км 8/6 600 м
[Sc Ac trans]
+17.0 +6.2 49 +18 +22 по сезону 1023.9 1022.7
12 19.09 СВ 2 50 км 8/0
[Ac und]
+19.9 +5.9 40 +21 +24 комфорт 1022.5 1021.3
15 19.09 С 4 20 км 3/0
[Cc]
+19.7 +1.6 30 +20 +20 тепло 1021.2 1020.0
18 19.09 СЗ 3 10 км 10/10 600 м
[Sc]
+17.6 +2.6 37 +18 +18 тепло 1021.2 1020.0 +21.8
21 19.09 С 2 10 км 10/10 600 м
[Sc]
+16.2 +4.9 47 +16 +16 по сезону 1021.2 1020.0
00 20.09 В 2 10 км 10/9 600 м
[Sc Ac As]
+15.9 +7.6 58 +16 +16 тепло 1021.2 1020.0
03 20.09 В 3 10 км 10/0
[As trans]
+15.2 +7.2 59 +15 +15 по сезону 1019.9 1018.7 +15.1
06 20.09 ЮВ 2 20 км 10/0
[Ac As]
+15.3 +4.9 50 +15 +15 по сезону 1019.9 1018.7 +14.9
09 20.09 ЮВ 1 20 км 10/4 600 м
[St Ac As]
+17.3 +6.5 49 +18 +18 по сезону 1018.5 1017.3
12 20.09 З 3 20 км 10/8 600 м
[Sc As op]
+15.9 +9.6 66 +15 +15 холодно 1018.5 1017.3
15 20.09 СЗ 3 20 км 5/5 600 м
[Sc]
+17.0 +1.0 34 +17 +17 по сезону 1018.5 1017.3
18 20.09 С 4 10 км 4/4 600 м
[Sc]
+13.3 +4.7 56 +12 +12 прохладно 1019.4 1018.2 +17.4
21 20.09 СЗ 3 10 км 4/4 600 м
[Sc]
+11.4 +5.0 65 +10 +10 холодно 1019.9 1018.7
00 21.09 СЗ 3
{10}
10 км 6/6 600 м
[St]
+11.5 +5.6 67 +10 +10 прохладно 1021.2 1020.0
03 21.09 СЗ 3 10 км 5/5 600 м
[Sc]
+10.9 +4.2 63 +9 +9 холодно 1020.9 1019.7 +10.9
06 21.09 20 км н/о +11.2 +4.0 61 +10 +11 холодно 1022.0 1020.8 +8.8
09 21.09 СЗ 5-10
{10}
20 км 4/4 600 м
[Cu hum]
+15.0 +1.9 41 +14 +17 прохладно 1023.9 1022.7
12 21.09 С 5-11
{11}
50 км 3/3 600 м
[Cu hum]
+16.0 +3.1 42 +15 +18 холодно 1023.3 1022.1
15 21.09 СЗ 5
{10}
50 км 3/3 600 м
[Cu hum]
+15.1 +1.2 39 +14 +14 прохладно 1023.4 1022.2
18 21.09 СЗ 2 10 км 3/3 600 м
[Sc diur, vesp]
+12.5 +2.2 49 +12 +12 прохладно 1024.3 1023.1 +16.3
21 21.09 СЗ 2 10 км ясно +9.7 +1.6 57 +8 +8 холодно 1026.5 1025.3
00 22.09 ЮЗ 2 10 км ясно +8.3 +2.9 69 +7 +7 холодно 1026.5 1025.3
03 22.09 ЮЗ 1 10 км 5/5 600 м
[Sc]
+7.6 +7.4 99 +7 +7 очень
холодно
1023.2 1022.0
06 22.09 З 2 50 км 10/10 600 м
[Sc]
+14.9 +7.0 59 +15 +15 по сезону 1023.9 1022.7 +7.4
09 22.09 З 5 50 км 9 баллов +19.7 +7.7 46 +20 +21 тепло 1023.9 1022.7

 

Местоположение метеостанции Евпатория (Крым, Россия): широта 45.18 долгота 33.37 высота над уровнем моря 10 м.

В архиве по умолчанию представлена погода в Евпатории за последнюю неделю. Архивные данные за месяц целиком и за предыдущие месяцы, начиная с января 2011 года, Вы можете получить, выбрав интересующий диапазон дат из раскрывающегося списка и нажав кнопку "Ввод!".


*Определитесь, кто Вы:
робот инопланетянин человек

Внимание! Время в таблицах - всемирное. Для получения местного времени необходимо прибавить поправку, которая равна 3 ч.

Смотрите также архив погоды в соседних городах и на ближайших метеорологических станциях:

Погода в Симферополе (Крым, Россия) (50 км)
Погода в Почтовом (Крым, Россия) (60 км)
Погода в Севастополе (город Севастополь, Россия) (64 км)
Погода в Симферополе город (Крым, Россия) (64 км)
Погода в Черноморском (Крым, Россия) (65 км)
Погода в Херсонесском Маяке (город Севастополь, Россия) (67 км)
Погода в Раздольном (Крым, Россия) (67 км)
Погода в Клепинино (Крым, Россия) (74 км)
Погода в Ишуни (Крым, Россия) (89 км)
Погода на Ангарском Перевале (Крым, Россия) (91 км)

Пояснения к столбцам:

Ветер - указаны скорость ветра в м/с - средняя за 10 мин, порывы в срок и между сроками (в фигурных скобках) и направление, откуда дует ветер: С - северный, СВ - северо-восточный, В - восточный, ЮВ - юго-восточный, Ю - южный, ЮЗ - юго-западный, З - западный, СЗ - северо-западный.
Видимость - горизонтальная дальность видимости в метрах или километрах. При видимости от 1 до 10 км при отсутствии осадков обычно наблюдается дымка, при ухудшении видимости до 1 км и менее - туман. В сухую погоду видимость может ухудшаться дымом, пылью или мглою.
Явления - указаны атмосферные явления, наблюдавшиеся в срок или в последний час перед сроком; фигурными скобками обозначены явления, наблюдавшиеся между сроками (за 1-3 часа до срока); квадратными скобками обозначены град или гололедные отложения с указанием их диаметра в мм.
Облачность - указаны через наклонную черту общая и нижняя облачность в баллах и высота нижней границы облаков в метрах; квадратными скобками обозначены формы облаков: Ci - перистые, Cs - перисто-слоистые, Cc - перисто-кучевые, Ac - высококучевые, As - высокослоистые, Sc - слоисто-кучевые, Ns - слоисто-дождевые, Cu - кучевые, Cb - кучево-дождевые. Подробнее классификацию облаков см. в Атласе облаков (PDF).
T - Температура воздуха - температура, измеренная на высоте 2 м над землей.
Td - Температура точки росы - температура, при понижении до которой содержащийся в воздухе водяной пар достигнет насыщения.
f - Относительная влажность воздуха - влажноcть воздуха, измеренная на высоте 2 м над землей.
Te - Эффективная температура - температура, которую ощущает одетый по сезону человек в тени. Характеристика душности погоды. При расчете учитывается влияние влажности воздуха и скорости ветра на теплоощущения человека.
Tes - Эффективная температура на солнце - температура, которую ощущает человек, с поправкой на солнечный нагрев. Характеристика знойности погоды. Зависит от высоты солнца над горизонтом, облачности и скорости ветра. Ночью, в пасмурную погоду, а также при ветре 12 м/с и более поправка равна нулю.
P - Атмосферное давление - приведенное к уровню моря атмосферное давление.
Po - Атмосферное давление - измеренное на уровне метеостанции атмосферное давление.
Tmin - Минимальная температура - минимум температуры воздуха на высоте 2 м над землей.
Tmax - Максимальная температура - максимум температуры воздуха на высоте 2 м над землей.
R - Количество осадков - Количество выпавших осадков за период времени, мм. При наведении курсора мыши на число - период времени, за который выпало указанное количество осадков.
R24 - Количество осадков - Количество выпавших осадков за 24 часа, мм.
S - Снежный покров - Высота снежного покрова, см. При наведении курсора мыши на число - состояние снежного покрова и степень покрытия местности в баллах.